Flag for United Arab Emirates

Past Weather in Dubai, Dubai, United Arab Emirates — September 2019

Now
88 °F

Clear.


Feels Like: 86 °F
Forecast: 92 / 77 °F
Wind: 8 mph from Northeast

Location: Dubai International Airport
Current Time: Oct 20, 2020 at 7:39:32 pm
Latest Report: Oct 20, 2020 at 7:00 pm
Visibility: 10 mi
Pressure29.80 "Hg
Humidity: 33%
Dew Point: 55 °F
Location of DubaiLocation

September 2019 Weather in Dubai — Graph

°F

High & Low Weather Summary for September 2019

 TemperatureHumidityPressure
High111 °F (Sep 3, 1:00 pm)94% (Sep 15, 7:00 am)29.86 "Hg (Sep 15, 7:00 am)
Low84 °F (Sep 19, 5:00 am)14% (Sep 3, 1:00 pm)29.42 "Hg (Sep 1, 4:00 pm)
Average95 °F56%29.62 "Hg
* Reported Sep 1 12:00 am — Sep 30 11:00 pm, Dubai. Weather by CustomWeather, © 2020

Note: Actual official high and low records may vary slightly from our data, if they occured in-between our weather recording intervals... More about our weather records

Dubai Weather History for September 1, 2019

Scroll right to see more
 ConditionsComfort  
Time TempWeatherWind HumidityBarometerVisibility
12:00 am
Sun, Sep 1
97 °FPassing clouds.6 mph50%29.47 "HgN/A
1:00 am95 °FPassing clouds.6 mph53%29.47 "HgN/A
2:00 am95 °FPassing clouds.5 mph53%29.47 "HgN/A
3:00 am95 °FPassing clouds.5 mph53%29.45 "HgN/A
4:00 am95 °FPassing clouds.6 mph56%29.45 "HgN/A
5:00 am93 °FClear.6 mph59%29.45 "Hg5 mi
6:00 am95 °FClear.2 mph53%29.47 "Hg4 mi
7:00 am97 °FClear.3 mph44%29.47 "Hg4 mi
8:00 am97 °FClear.7 mph47%29.50 "Hg4 mi
9:00 am99 °FClear.8 mph53%29.53 "Hg4 mi
10:00 am100 °FClear.6 mph47%29.53 "Hg4 mi
11:00 am106 °FClear.5 mph26%29.50 "Hg5 mi
12:00 pm102 °FClear.12 mph42%29.50 "Hg5 mi
1:00 pm102 °FClear.13 mph42%29.47 "Hg6 mi
2:00 pm104 °FSunny.13 mph38%29.45 "Hg10 mi
3:00 pm102 °FSunny.17 mph37%29.45 "Hg10 mi
4:00 pm102 °FPassing clouds.16 mph42%29.42 "HgN/A
5:00 pm100 °FPassing clouds.13 mph53%29.45 "HgN/A
6:00 pm99 °FPassing clouds.8 mph50%29.45 "HgN/A
7:00 pm100 °FClear.5 mph35%29.45 "Hg10 mi
8:00 pm100 °FPassing clouds.6 mph37%29.47 "HgN/A
9:00 pm100 °FPassing clouds.6 mph31%29.47 "HgN/A
10:00 pm99 °FPassing clouds.6 mph42%29.50 "HgN/A
11:00 pm97 °FClear.5 mph50%29.50 "Hg6 mi
Weather by CustomWeather, © 2020

See weather overview